Location: Zagreb
(45.8000°N, 16.0000°E)
Time: 10:54:10
(UTC+02:00)

Courier 1B Rocket - All Passes

Search period start: 15 July 2024 00:00
Search period end: 25 July 2024 00:00
Orbit: 920 x 1201 km, 28.2° (Epoch: 14 July)

Date Brightness Start Highest point End Pass type
(mag) Time Alt. Az. Time Alt. Az. Time Alt. Az.
15 Jul - 16:59:13 10° S 17:00:50 11° SSE 17:02:26 10° SSE daylight
15 Jul - 18:48:34 10° SSW 18:53:10 18° S 18:57:35 10° SE daylight
15 Jul - 20:41:16 10° SW 20:45:30 17° S 20:49:35 10° SSE daylight
16 Jul - 17:47:54 10° SSW 17:52:15 16° S 17:56:29 10° SE daylight
16 Jul - 19:39:55 10° SW 19:44:38 18° S 19:49:11 10° SE daylight
16 Jul - 21:34:21 10° SW 21:36:52 12° SSW 21:39:19 10° S visible
17 Jul - 16:47:36 10° SSW 16:51:20 14° SSE 16:55:00 10° SE daylight
17 Jul - 18:38:46 10° SW 18:43:44 19° S 18:48:31 10° SE daylight
17 Jul - 20:32:11 10° SW 20:36:04 15° SSW 20:39:50 10° SSE daylight
18 Jul - 15:48:04 10° S 15:50:26 12° SSE 15:52:45 10° SE daylight
18 Jul - 17:37:50 10° SW 17:42:48 19° S 17:47:37 10° SE daylight
18 Jul - 19:30:33 10° SW 19:35:12 18° S 19:39:42 10° SSE daylight
19 Jul - 16:37:09 10° SSW 16:41:51 17° SSE 16:46:26 10° SE daylight
19 Jul - 18:29:12 10° SW 18:34:18 19° S 18:39:13 10° SE daylight
19 Jul - 20:23:30 10° SW 20:26:35 13° SSW 20:29:36 10° S daylight
20 Jul - 15:36:52 10° SSW 15:40:54 15° SSE 15:44:53 10° SE daylight
20 Jul - 17:28:04 10° SW 17:33:20 20° S 17:38:28 10° SE daylight
20 Jul - 19:21:26 10° SW 19:25:44 16° SSW 19:29:55 10° SSE daylight
21 Jul - 14:37:19 10° S 14:39:59 12° SSE 14:42:38 10° SE daylight
21 Jul - 16:27:10 10° SW 16:32:21 19° S 16:37:28 10° SE daylight
21 Jul - 18:19:51 10° SW 18:24:49 19° S 18:29:40 10° SSE daylight
21 Jul - 20:16:15 10° SSW 20:17:03 10° SSW 20:17:51 10° SSW daylight
22 Jul - 15:26:32 10° SSW 15:31:22 18° SSE 15:36:11 10° SE daylight
22 Jul - 17:18:32 10° SW 17:23:52 20° S 17:29:05 10° SE daylight
22 Jul - 19:12:42 10° SW 19:16:13 14° SSW 19:19:40 10° S daylight
23 Jul - 14:26:19 10° SSW 14:30:25 15° SSE 14:34:32 10° SE daylight
23 Jul - 16:17:27 10° SW 16:22:52 20° S 16:28:14 10° SE daylight
23 Jul - 18:10:44 10° SW 18:15:19 17° SSW 18:19:49 10° SSE daylight
24 Jul - 13:26:52 10° S 13:29:31 12° SSE 13:32:11 10° SE daylight
24 Jul - 15:16:38 10° SW 15:21:52 20° S 15:27:07 10° SE daylight
24 Jul - 17:09:13 10° SW 17:14:22 19° S 17:19:27 10° SSE daylight
24 Jul - 19:04:58 10° SW 19:06:39 11° SSW 19:08:21 10° S daylight
